Time,TemperatureF,DewpointF,PressureIn,WindDirection,WindDirectionDegrees,WindSpeedMPH,WindSpeedGustMPH,Humidity,HourlyPrecipIn,Conditions,Clouds,dailyrainin,SoftwareType,DateUTC
2013-03-29 00:00:00,34.0,-99.9,-100.00,SSW,199,8.0,9.0,-999,-99.99,,,-99.99,,2013-03-29 06:00:00,
2013-03-29 00:52:00,34.0,-99.9,-100.00,SSW,199,8.0,9.0,-999,-99.99,,,-99.99,,2013-03-29 06:52:00,
2013-03-29 01:00:00,28.0,-99.9,-100.00,West,271,5.0,6.0,-999,-99.99,,,-99.99,,2013-03-29 07:00:00,
2013-03-29 01:52:00,28.0,-99.9,-100.00,West,271,5.0,6.0,-999,-99.99,,,-99.99,,2013-03-29 07:52:00,
2013-03-29 02:00:00,28.0,-99.9,-100.00,West,277,5.0,7.0,-999,-99.99,,,-99.99,,2013-03-29 08:00:00,
2013-03-29 02:53:00,28.0,-99.9,-100.00,West,277,5.0,7.0,-999,-99.99,,,-99.99,,2013-03-29 08:53:00,
2013-03-29 03:00:00,25.0,-99.9,-100.00,West,277,4.0,6.0,-999,-99.99,,,-99.99,,2013-03-29 09:00:00,
2013-03-29 03:53:00,25.0,-99.9,-100.00,West,277,4.0,6.0,-999,-99.99,,,-99.99,,2013-03-29 09:53:00,
2013-03-29 04:00:00,28.0,-99.9,-100.00,WSW,257,6.0,8.0,-999,-99.99,,,-99.99,,2013-03-29 10:00:00,
2013-03-29 04:54:00,28.0,-99.9,-100.00,WSW,257,6.0,8.0,-999,-99.99,,,-99.99,,2013-03-29 10:54:00,
2013-03-29 05:00:00,27.0,-99.9,-100.00,WSW,254,7.0,9.0,-999,-99.99,,,-99.99,,2013-03-29 11:00:00,
2013-03-29 05:53:00,27.0,-99.9,-100.00,WSW,254,7.0,9.0,-999,-99.99,,,-99.99,,2013-03-29 11:53:00,
2013-03-29 06:00:00,27.0,-99.9,-100.00,WSW,238,10.0,11.0,-999,-99.99,,,-99.99,,2013-03-29 12:00:00,
2013-03-29 06:53:00,27.0,-99.9,-100.00,WSW,238,10.0,11.0,-999,-99.99,,,-99.99,,2013-03-29 12:53:00,
2013-03-29 07:00:00,28.0,-99.9,-100.00,WSW,238,12.0,12.0,-999,-99.99,,,-99.99,,2013-03-29 13:00:00,
2013-03-29 07:53:00,28.0,-99.9,-100.00,WSW,238,12.0,12.0,-999,-99.99,,,-99.99,,2013-03-29 13:53:00,
2013-03-29 08:00:00,34.0,-99.9,-100.00,WSW,248,11.0,16.0,-999,-99.99,,,-99.99,,2013-03-29 14:00:00,
2013-03-29 08:53:00,34.0,-99.9,-100.00,WSW,248,11.0,16.0,-999,-99.99,,,-99.99,,2013-03-29 14:53:00,
2013-03-29 09:00:00,34.0,-99.9,-100.00,WSW,257,15.0,20.0,-999,-99.99,,,-99.99,,2013-03-29 15:00:00,
2013-03-29 09:33:00,34.0,-99.9,-100.00,WSW,257,15.0,20.0,-999,-99.99,,,-99.99,,2013-03-29 15:33:00,
2013-03-29 09:43:00,34.0,-99.9,-100.00,WSW,257,15.0,20.0,-999,-99.99,,,-99.99,,2013-03-29 15:43:00,
2013-03-29 09:53:00,34.0,-99.9,-100.00,WSW,257,15.0,20.0,-999,-99.99,,,-99.99,,2013-03-29 15:53:00,
2013-03-29 10:00:00,39.0,-99.9,-100.00,WSW,252,20.0,23.0,-999,-99.99,,,-99.99,,2013-03-29 16:00:00,
2013-03-29 10:53:00,39.0,-99.9,-100.00,WSW,252,20.0,23.0,-999,-99.99,,,-99.99,,2013-03-29 16:53:00,
2013-03-29 11:00:00,43.0,-99.9,-100.00,SW,232,19.0,26.0,-999,-99.99,,,-99.99,,2013-03-29 17:00:00,
2013-03-29 11:53:00,43.0,-99.9,-100.00,SW,232,19.0,26.0,-999,-99.99,,,-99.99,,2013-03-29 17:53:00,
2013-03-29 12:00:00,43.0,-99.9,-100.00,WSW,252,21.0,33.0,-999,-99.99,,,-99.99,,2013-03-29 18:00:00,
2013-03-29 12:53:00,43.0,-99.9,-100.00,WSW,252,21.0,33.0,-999,-99.99,,,-99.99,,2013-03-29 18:53:00,
2013-03-29 13:00:00,45.0,-99.9,-100.00,West,260,28.0,33.0,-999,-99.99,,,-99.99,,2013-03-29 19:00:00,
2013-03-29 13:53:00,45.0,-99.9,-100.00,West,260,28.0,33.0,-999,-99.99,,,-99.99,,2013-03-29 19:53:00,
2013-03-29 14:00:00,45.0,-99.9,-100.00,SW,229,22.0,37.0,-999,-99.99,,,-99.99,,2013-03-29 20:00:00,
2013-03-29 14:52:00,45.0,-99.9,-100.00,SW,229,22.0,37.0,-999,-99.99,,,-99.99,,2013-03-29 20:52:00,
2013-03-29 15:00:00,45.0,-99.9,-100.00,WSW,240,36.0,38.0,-999,-99.99,,,-99.99,,2013-03-29 21:00:00,
2013-03-29 15:53:00,45.0,-99.9,-100.00,WSW,240,36.0,38.0,-999,-99.99,,,-99.99,,2013-03-29 21:53:00,
2013-03-29 16:00:00,39.0,-99.9,-100.00,West,260,19.0,31.0,-999,-99.99,,,-99.99,,2013-03-29 22:00:00,
2013-03-29 16:54:00,39.0,-99.9,-100.00,West,260,19.0,31.0,-999,-99.99,,,-99.99,,2013-03-29 22:54:00,
2013-03-29 17:00:00,43.0,-99.9,-100.00,SW,236,22.0,29.0,-999,-99.99,,,-99.99,,2013-03-29 23:00:00,
2013-03-29 17:53:00,43.0,-99.9,-100.00,SW,236,22.0,29.0,-999,-99.99,,,-99.99,,2013-03-29 23:53:00,
2013-03-29 18:00:00,43.0,-99.9,-100.00,SW,230,21.0,31.0,-999,-99.99,,,-99.99,,2013-03-30 00:00:00,
2013-03-29 18:53:00,43.0,-99.9,-100.00,SW,230,21.0,31.0,-999,-99.99,,,-99.99,,2013-03-30 00:53:00,
2013-03-29 19:00:00,39.0,-99.9,-100.00,West,260,13.0,25.0,-999,-99.99,,,-99.99,,2013-03-30 01:00:00,
2013-03-29 19:53:00,39.0,-99.9,-100.00,West,260,13.0,25.0,-999,-99.99,,,-99.99,,2013-03-30 01:53:00,
2013-03-29 20:00:00,37.0,-99.9,-100.00,West,263,17.0,20.0,-999,-99.99,,,-99.99,,2013-03-30 02:00:00,
2013-03-29 20:53:00,37.0,-99.9,-100.00,West,263,17.0,20.0,-999,-99.99,,,-99.99,,2013-03-30 02:53:00,
2013-03-29 21:00:00,34.0,-99.9,-100.00,SW,233,18.0,18.0,-999,-99.99,,,-99.99,,2013-03-30 03:00:00,
2013-03-29 21:53:00,34.0,-99.9,-100.00,SW,233,18.0,18.0,-999,-99.99,,,-99.99,,2013-03-30 03:53:00,
2013-03-29 22:00:00,34.0,-99.9,-100.00,SW,235,12.0,19.0,-999,-99.99,,,-99.99,,2013-03-30 04:00:00,
2013-03-29 22:53:00,34.0,-99.9,-100.00,SW,235,12.0,19.0,-999,-99.99,,,-99.99,,2013-03-30 04:53:00,
2013-03-29 23:00:00,34.0,-99.9,-100.00,WSW,252,13.0,20.0,-999,-99.99,,,-99.99,,2013-03-30 05:00:00,
2013-03-29 23:52:00,34.0,-99.9,-100.00,WSW,252,13.0,20.0,-999,-99.99,,,-99.99,,2013-03-30 05:52:00,